DW4892 Weather Reports


Display with metric or nautical units.
time (UTC)temp
F
wind
direction
speed
MPH
gust
MPH
rain 1hr
in
rain 24hr
in
rain mn
in
humidity
%
barometer
mb
20181017010044 40 15 0.0 0.0 0.00 0.00 0.00 57 1027.8
20181017004614 42 15 0.0 0.0 0.00 0.00 0.00 55 1027.7
20181017003110 44 15 0.0 1.0 0.00 0.00 0.00 52 1027.6
20181017001600 45 15 0.0 3.0 0.00 0.00 0.00 48 1027.4
20181017000119 47 15 0.0 4.0 0.00 0.00 0.00 47 1027.2
20181016234603 48 15 1.0 5.0 0.00 0.00 0.00 45 1027.1
20181016233030 49 15 3.0 9.0 0.00 0.00 0.00 43 1027.0
20181016231545 50 30 3.0 9.0 0.00 0.00 0.00 40 1026.9
20181016230042 50 10 4.0 9.0 0.00 0.00 0.00 40 1026.8
20181016224545 51 348 6.0 11.0 0.00 0.00 0.00 39 1026.8
20181016223204 51 36 4.0 10.0 0.00 0.00 0.00 38 1026.8
20181016221550 51 13 5.0 11.0 0.00 0.00 0.00 39 1026.7
20181016220049 52 337 7.0 12.0 0.00 0.00 0.00 38 1026.7
20181016214636 51 355 7.0 13.0 0.00 0.00 0.00 38 1026.8
20181016213115 51 5 5.0 12.0 0.00 0.00 0.00 37 1026.7
20181016211535 52 350 3.0 14.0 0.00 0.00 0.00 37 1026.7
20181016210046 52 360 6.0 13.0 0.00 0.00 0.00 37 1026.7
20181016204541 52 20 5.0 11.0 0.00 0.00 0.00 37 1026.6
20181016203049 52 22 6.0 12.0 0.00 0.00 0.00 37 1026.8
20181016201544 51 22 6.0 11.0 0.00 0.00 0.00 37 1026.9
20181016200048 51 10 6.0 12.0 0.00 0.00 0.00 36 1027.1
20181016194536 51 30 8.0 13.0 0.00 0.00 0.00 38 1027.1
20181016193049 51 34 3.0 14.0 0.00 0.00 0.00 36 1027.2
20181016191628 50 19 5.0 12.0 0.00 0.00 0.00 37 1027.4
20181016190030 49 296 4.0 11.0 0.00 0.00 0.00 36 1027.5
20181016184555 49 355 2.0 9.0 0.00 0.01 0.00 37 1027.8
20181016183115 49 348 5.0 12.0 0.00 0.01 0.00 36 1027.9
20181016181546 49 290 1.0 10.0 0.00 0.01 0.00 37 1028.0
20181016180046 48 309 3.0 9.0 0.00 0.01 0.00 36 1028.0
20181016174551 49 350 3.0 9.0 0.00 0.03 0.00 35 1028.0
20181016173039 48 355 4.0 10.0 0.00 0.03 0.00 36 1028.0
20181016171527 47 360 2.0 10.0 0.00 0.03 0.00 36 1027.9
20181016170052 46 338 4.0 8.0 0.00 0.03 0.00 37 1028.0
20181016164611 45 331 1.0 6.0 0.00 0.04 0.00 38 1028.1
20181016163037 44 272 1.0 4.0 0.00 0.04 0.00 38 1028.1
20181016161551 42 246 2.0 6.0 0.00 0.04 0.00 40 1028.1
20181016160042 41 216 3.0 8.0 0.00 0.04 0.00 40 1028.1
20181016154542 40 219 2.0 8.0 0.00 0.05 0.00 43 1028.1
20181016153059 38 232 2.0 6.0 0.00 0.05 0.00 44 1028.1
20181016151618 37 236 3.0 7.0 0.00 0.05 0.00 45 1027.8
20181016150131 35 221 3.0 8.0 0.00 0.05 0.00 48 1027.9
20181016144620 34 254 3.0 6.0 0.00 0.05 0.00 50 1027.7
20181016143039 33 235 4.0 9.0 0.00 0.05 0.00 51 1027.6
20181016141609 32 240 4.0 8.0 0.00 0.05 0.00 53 1027.4
20181016140128 31 234 4.0 7.0 0.00 0.05 0.00 55 1027.3
20181016134548 30 246 3.0 5.0 0.00 0.05 0.00 56 1027.1
20181016133036 30 241 3.0 7.0 0.00 0.05 0.00 56 1026.9
20181016131552 30 216 3.0 9.0 0.00 0.05 0.00 56 1026.7
20181016130114 30 218 4.0 8.0 0.00 0.05 0.00 56 1026.7
20181016124550 30 227 4.0 7.0 0.00 0.05 0.00 55 1026.6
20181016123036 30 240 3.0 7.0 0.00 0.05 0.00 56 1026.5
20181016121604 29 226 4.0 8.0 0.00 0.05 0.00 57 1026.5
20181016120206 29 229 4.0 8.0 0.00 0.05 0.00 58 1026.3
20181016114556 29 244 4.0 10.0 0.00 0.05 0.00 58 1026.4
20181016113039 29 203 3.0 7.0 0.00 0.05 0.00 59 1026.3
20181016111612 29 219 4.0 6.0 0.00 0.05 0.00 59 1026.1
20181016110051 29 247 3.0 7.0 0.00 0.05 0.00 60 1026.1
20181016104600 28 227 3.0 8.0 0.00 0.05 0.00 61 1026.1
20181016103046 28 225 2.0 6.0 0.00 0.05 0.00 63 1026.1
20181016101548 28 238 2.0 6.0 0.00 0.05 0.00 63 1026.0
20181016100041 28 234 2.0 6.0 0.00 0.05 0.00 63 1025.9
20181016094615 28 211 3.0 6.0 0.00 0.05 0.00 63 1025.8
20181016093057 28 226 2.0 7.0 0.00 0.05 0.00 64 1025.9
20181016091544 28 248 4.0 7.0 0.00 0.05 0.00 65 1026.0
20181016090031 27 242 4.0 9.0 0.00 0.05 0.00 66 1026.0
20181016084628 27 246 4.0 8.0 0.00 0.05 0.00 67 1026.1
20181016083053 27 247 4.0 7.0 0.00 0.05 0.00 68 1026.0
20181016081543 27 238 3.0 7.0 0.00 0.05 0.00 68 1026.1
20181016080036 27 223 3.0 7.0 0.00 0.05 0.00 67 1026.0
20181016074603 27 232 4.0 8.0 0.00 0.05 0.00 68 1025.9
20181016073041 27 229 4.0 8.0 0.00 0.05 0.00 68 1025.9
20181016071553 27 248 4.0 7.0 0.00 0.05 0.00 67 1025.9
20181016070054 27 225 4.0 6.0 0.00 0.05 0.00 67 1025.8
20181016064647 27 254 0.0 2.0 0.00 0.05 0.00 66 1025.8
20181016063051 28 254 1.0 4.0 0.00 0.05 0.00 66 1025.9
20181016061614 28 254 2.0 5.0 0.00 0.05 0.00 66 1025.9
20181016060051 28 254 2.0 5.0 0.00 0.05 0.00 66 1026.0
20181016054548 28 254 0.0 3.0 0.00 0.05 0.05 65 1025.9
20181016053039 28 254 2.0 5.0 0.00 0.05 0.05 67 1025.8
20181016051532 29 254 1.0 3.0 0.00 0.05 0.05 66 1025.8
20181016050103 29 254 1.0 3.0 0.00 0.05 0.05 65 1025.6
20181016044543 29 254 1.0 4.0 0.00 0.05 0.05 65 1025.7
20181016043052 29 255 1.0 5.0 0.00 0.05 0.05 65 1025.5
20181016041549 29 256 1.0 4.0 0.00 0.05 0.05 65 1025.6
20181016040055 29 256 1.0 4.0 0.00 0.05 0.05 64 1025.4
20181016034626 29 256 0.0 4.0 0.00 0.05 0.05 63 1025.4
20181016033104 30 267 1.0 4.0 0.00 0.05 0.05 61 1025.4
20181016031524 30 26 0.0 2.0 0.00 0.05 0.05 56 1025.3
20181016030136 30 26 0.0 2.0 0.00 0.05 0.05 52 1025.2
20181016024618 31 26 0.0 3.0 0.00 0.05 0.05 48 1025.3
20181016023039 31 27 0.0 2.0 0.00 0.05 0.05 45 1025.3
20181016021607 31 27 1.0 3.0 0.00 0.05 0.05 44 1025.3
20181016020054 31 27 1.0 4.0 0.00 0.05 0.05 41 1025.2
20181016014604 31 30 0.0 0.0 0.00 0.05 0.05 38 1025.2
20181016013055 31 30 0.0 0.0 0.00 0.05 0.05 39 1025.1
20181016011545 31 30 0.0 0.0 0.00 0.05 0.05 38 1025.0